CW3628 Weather Reports


Display with metric or nautical units.
time (UTC)temp
F
wind
direction
speed
MPH
gust
MPH
rain 1hr
in
rain 24hr
in
rain mn
in
humidity
%
barometer
mb
20260506134421 55 188 0.0 0.0 0.00 0.00 0.00 86 1019.4
20260506132921 55 188 0.0 0.0 0.00 0.00 0.00 86 1019.3
20260506131421 55 188 0.0 0.0 0.00 0.00 0.00 86 1019.2
20260506125920 55 188 0.0 0.0 0.00 0.00 0.00 86 1019.2
20260506124420 55 188 0.0 0.0 0.00 0.00 0.00 86 1019.1
20260506122920 55 188 0.0 0.0 0.00 0.00 0.00 85 1019.0
20260506121419 55 188 0.0 0.0 0.00 0.00 0.00 85 1019.0
20260506115919 55 188 0.0 0.0 0.00 0.00 0.00 85 1018.9
20260506114419 55 188 0.0 0.0 0.00 0.00 0.00 85 1018.9
20260506112920 56 188 0.0 0.0 0.00 0.00 0.00 85 1018.8
20260506105919 56 188 0.0 0.0 0.00 0.01 0.00 84 1018.7
20260506104418 56 188 0.0 0.0 0.00 0.01 0.00 84 1018.6
20260506101417 56 188 0.0 0.0 0.00 0.01 0.00 84 1018.4
20260506095917 56 188 0.0 0.0 0.00 0.01 0.00 84 1018.3
20260506094418 56 188 0.0 0.0 0.00 0.01 0.00 84 1018.3
20260506092917 56 188 0.0 0.0 0.00 0.01 0.00 84 1018.3
20260506091416 56 188 0.0 0.0 0.00 0.01 0.00 84 1018.3
20260506085915 56 188 0.0 0.0 0.00 0.01 0.00 83 1018.3
20260506082916 56 188 0.0 0.0 0.00 0.02 0.00 83 1018.4
20260506072914 56 188 0.0 2.0 0.00 0.02 0.00 83 1018.1
20260506071414 56 188 0.0 0.0 0.00 0.02 0.00 83 1018.0
20260506061442 56 189 0.0 0.0 0.00 0.12 0.02 82 1017.5
20260506044441 57 189 0.0 2.0 0.00 0.20 0.02 81 1016.8
20260506035940 58 153 0.0 8.0 0.00 0.21 0.02 79 1016.2
20260506034440 58 169 2.0 9.0 0.00 0.22 0.02 78 1016.0
20260506032939 58 141 0.0 11.0 0.00 0.22 0.02 77 1015.8
20260506031439 58 150 0.0 9.0 0.00 0.23 0.02 76 1015.4
20260506025939 59 148 0.0 15.0 0.00 0.24 0.02 75 1015.2
20260506024440 59 152 0.0 9.0 0.00 0.25 0.02 74 1015.2
20260506022938 60 157 0.0 9.0 0.00 0.27 0.02 73 1015.2
20260506021438 60 169 0.0 9.0 0.00 0.28 0.02 72 1015.1
20260506015938 61 153 9.0 9.0 0.00 0.30 0.02 73 1014.9
20260506014437 61 261 2.0 11.0 0.00 0.32 0.02 72 1014.7
20260506012938 61 221 3.0 9.0 0.00 0.33 0.02 72 1014.7
20260506004437 62 284 9.0 12.0 0.00 0.37 0.02 71 1014.5
20260506002936 62 237 0.0 11.0 0.00 0.38 0.02 72 1014.4
20260506001435 62 240 5.0 12.0 0.00 0.40 0.02 72 1014.3
20260505235935 62 251 0.0 12.0 0.00 0.41 0.02 72 1014.3
20260505234435 63 215 6.0 14.0 0.00 0.42 0.02 71 1014.4
20260505232935 64 252 3.0 11.0 0.00 0.43 0.02 71 1014.3
20260505231434 64 217 8.0 12.0 0.00 0.44 0.02 71 1014.4
20260505224434 64 200 2.0 9.0 0.00 0.47 0.02 71 1014.4
20260505222934 64 264 0.0 11.0 0.00 0.48 0.02 71 1014.4
20260505221434 64 203 3.0 9.0 0.00 0.49 0.02 71 1014.5
20260505215934 64 257 0.0 8.0 0.00 0.49 0.02 70 1014.5
20260505214433 64 222 0.0 8.0 0.00 0.49 0.02 70 1014.7
20260505212934 65 245 0.0 9.0 0.00 0.49 0.02 71 1014.8
20260505205933 64 281 8.0 12.0 0.00 0.49 0.02 72 1014.9
20260505204433 64 281 0.0 9.0 0.00 0.49 0.02 71 1014.9
20260505202933 63 229 0.0 9.0 0.00 0.49 0.02 72 1014.9
20260505201433 65 254 0.0 11.0 0.00 0.49 0.02 70 1015.0
20260505195933 64 207 0.0 6.0 0.00 0.49 0.02 72 1015.0
20260505194433 63 237 6.0 9.0 0.00 0.49 0.02 72 1015.0
20260505192933 63 248 0.0 8.0 0.00 0.49 0.02 71 1015.1
20260505185932 62 279 0.0 9.0 0.00 0.49 0.02 74 1015.0
20260505184432 62 278 0.0 8.0 0.00 0.49 0.02 75 1015.0
20260505181432 62 219 0.0 2.0 0.00 0.49 0.02 80 1014.9
20260505175932 61 219 0.0 3.0 0.00 0.49 0.02 77 1014.9
20260505174432 61 219 0.0 3.0 0.00 0.49 0.02 78 1014.9
20260505172931 59 219 0.0 5.0 0.00 0.49 0.02 78 1014.7
20260505165931 58 211 0.0 2.0 0.00 0.49 0.02 85 1014.8
20260505164430 57 211 0.0 2.0 0.00 0.49 0.02 85 1014.8
20260505162931 57 211 0.0 3.0 0.00 0.49 0.02 87 1014.7
20260505161430 57 211 0.0 0.0 0.00 0.49 0.02 89 1014.6
20260505151430 54 211 0.0 0.0 0.00 0.49 0.02 91 1014.3